"Sample Date","Sample Time","Sample Value","Units","Flow Rate","Laser Status","Micron Size 0","Counts/Channel 0","Micron Size 1","Counts/Channel 1","Micron Size 2","Counts/Channel 2","Micron Size 3","Counts/Channel 3","Micron Size 4","Counts/Channel 4","Micron Size 5","Counts/Channel 5","Micron Size 6","Counts/Channel 6","Micron Size 7","Counts/Channel 7","Micron Size 8","Counts/Channel 8","Micron Size 9","Counts/Channel 9","Micron Size 10","Counts/Channel 10","Micron Size 11","Counts/Channel 11","Micron Size 12","Counts/Channel 12","Micron Size 13","Counts/Channel 13","Micron Size 14","Counts/Channel 14","Micron Size 15","Counts/Channel 15","Micron Size 16","Counts/Channel 16","Micron Size 17","Counts/Channel 17","Micron Size 18","Counts/Channel 18","Micron Size 19","Counts/Channel 19","Micron Size 20","Counts/Channel 20","Micron Size 21","Counts/Channel 21","Micron Size 22","Counts/Channel 22","Micron Size 23","Counts/Channel 23","Micron Size 24","Counts/Channel 24","Micron Size 25","Counts/Channel 25","Micron Size 26","Counts/Channel 26","Micron Size 27","Counts/Channel 27","Micron Size 28","Counts/Channel 28","Micron Size 29","Counts/Channel 29","Micron Size 30","Counts/Channel 30","Micron Size 31","Counts/Channel 31"
"03/01/08","08:00:05",207857.000,"cc",28347.486,1,0.100,166250.000,0.200,28903.000,0.300,6195.000,0.500,4735.000,1.000,1774.000,5.000,0
"03/01/08","08:00:11",178213.000,"cc",28302.822,1,0.100,145218.000,0.200,23506.000,0.300,4702.000,0.500,3469.000,1.000,1318.000,5.000,0
"03/01/08","08:00:17",202716.000,"cc",28255.049,1,0.100,161647.000,0.200,28918.000,0.300,6034.000,0.500,4428.000,1.000,1688.000,5.000,1.000
"03/01/08","08:00:23",305296.000,"cc",28348.408,1,0.100,247086.000,0.200,47481.000,0.300,5868.000,0.500,3555.000,1.000,1306.000,5.000,0
"03/01/08","08:00:29",214852.000,"cc",28276.815,1,0.100,176239.000,0.200,28765.000,0.300,5052.000,0.500,3445.000,1.000,1351.000,5.000,0
"03/01/08","08:00:35",201362.000,"cc",28361.904,1,0.100,164838.000,0.200,26896.000,0.300,4841.000,0.500,3456.000,1.000,1331.000,5.000,0
"03/01/08","08:00:41",217156.000,"cc",28287.068,1,0.100,177956.000,0.200,29034.000,0.300,5032.000,0.500,3705.000,1.000,1429.000,5.000,0
"03/01/08","08:00:47",215590.000,"cc",28288.231,1,0.100,178216.000,0.200,28227.000,0.300,4583.000,0.500,3298.000,1.000,1266.000,5.000,0
"03/01/08","08:00:53",199472.000,"cc",28321.074,1,0.100,165229.000,0.200,25984.000,0.300,4173.000,0.500,2996.000,1.000,1090.000,5.000,0
"03/01/08","08:00:59",170203.000,"cc",28295.525,1,0.100,138783.000,0.200,21827.000,0.300,4660.000,0.500,3594.000,1.000,1339.000,5.000,0
"03/01/08","08:01:05",162718.000,"cc",28305.781,1,0.100,132263.000,0.200,20934.000,0.300,4623.000,0.500,3546.000,1.000,1352.000,5.000,0
"03/01/08","08:01:11",218554.000,"cc",28307.246,1,0.100,150156.000,0.200,56851.000,0.300,8541.000,0.500,2249.000,1.000,757.000,5.000,0
"03/01/08","08:01:17",473728.000,"cc",28319.434,1,0.100,327763.000,0.200,128923.000,0.300,13782.000,0.500,2493.000,1.000,767.000,5.000,0
"03/01/08","08:01:23",358618.000,"cc",28389.691,1,0.100,287693.000,0.200,63107.000,0.300,5412.000,0.500,1789.000,1.000,617.000,5.000,0
"03/01/08","08:01:29",186421.000,"cc",28301.053,1,0.100,156865.000,0.200,24161.000,0.300,3044.000,0.500,1733.000,1.000,618.000,5.000,0
"03/01/08","08:01:35",257733.000,"cc",28316.199,1,0.100,210618.000,0.200,38787.000,0.300,4760.000,0.500,2644.000,1.000,924.000,5.000,0
"03/01/08","08:01:41",279934.000,"cc",28355.717,1,0.100,227608.000,0.200,42128.000,0.300,5852.000,0.500,3229.000,1.000,1117.000,5.000,0
"03/01/08","08:01:47",270111.000,"cc",28284.697,1,0.100,220847.000,0.200,39859.000,0.300,5336.000,0.500,2981.000,1.000,1088.000,5.000,0
"03/01/08","08:01:53",223755.000,"cc",28332.148,1,0.100,183396.000,0.200,31681.000,0.300,4807.000,0.500,2877.000,1.000,994.000,5.000,0
"03/01/08","08:01:59",211812.000,"cc",28299.717,1,0.100,166276.000,0.200,31683.000,0.300,7265.000,0.500,4824.000,1.000,1764.000,5.000,0
"03/01/08","08:02:05",351559.000,"cc",28294.207,1,0.100,276471.000,0.200,61232.000,0.300,7937.000,0.500,4418.000,1.000,1501.000,5.000,0
"03/01/08","08:02:11",381533.000,"cc",28339.994,1,0.100,278319.000,0.200,89032.000,0.300,9088.000,0.500,3756.000,1.000,1338.000,5.000,0
"03/01/08","08:02:17",422098.000,"cc",28236.010,1,0.100,297832.000,0.200,109219.000,0.300,10523.000,0.500,3397.000,1.000,1127.000,5.000,0
"03/01/08","08:02:23",369746.000,"cc",28371.119,1,0.100,291595.000,0.200,63663.000,0.300,8361.000,0.500,4563.000,1.000,1564.000,5.000,0
"03/01/08","08:02:29",331615.000,"cc",28345.264,1,0.100,262153.000,0.200,55462.000,0.300,7875.000,0.500,4438.000,1.000,1687.000,5.000,0
"03/01/08","08:02:35",358818.000,"cc",28296.209,1,0.100,280294.000,0.200,65402.000,0.300,7983.000,0.500,3776.000,1.000,1363.000,5.000,0
"03/01/08","08:02:41",373848.000,"cc",28289.688,1,0.100,264555.000,0.200,93173.000,0.300,10518.000,0.500,4202.000,1.000,1399.000,5.000,1.000
"03/01/08","08:02:47",318325.000,"cc",28342.418,1,0.100,251115.000,0.200,52028.000,0.300,8524.000,0.500,4996.000,1.000,1662.000,5.000,0
"03/01/08","08:02:53",265135.000,"cc",28335.795,1,0.100,213014.000,0.200,39955.000,0.300,6594.000,0.500,4057.000,1.000,1515.000,5.000,0
"03/01/08","08:02:59",287005.000,"cc",28354.082,1,0.100,226186.000,0.200,45354.000,0.300,8341.000,0.500,5253.000,1.000,1871.000,5.000,0
"03/01/08","08:03:05",374961.000,"cc",28311.084,1,0.100,292639.000,0.200,65917.000,0.300,9350.000,0.500,5189.000,1.000,1866.000,5.000,0
"03/01/08","08:03:11",368587.000,"cc",28282.547,1,0.100,290490.000,0.200,63240.000,0.300,8556.000,0.500,4595.000,1.000,1706.000,5.000,0
"03/01/08","08:03:17",462934.000,"cc",28304.258,1,0.100,348122.000,0.200,97540.000,0.300,10807.000,0.500,4728.000,1.000,1737.000,5.000,0
"03/01/08","08:03:23",355607.000,"cc",28291.934,1,0.100,263223.000,0.200,78496.000,0.300,8732.000,0.500,3857.000,1.000,1299.000,5.000,0
"03/01/08","08:03:29",341985.000,"cc",28358.695,1,0.100,252864.000,0.200,75218.000,0.300,8417.000,0.500,4070.000,1.000,1416.000,5.000,0
"03/01/08","08:03:35",390174.000,"cc",28314.713,1,0.100,310694.000,0.200,67927.000,0.300,7054.000,0.500,3316.000,1.000,1183.000,5.000,0
"03/01/08","08:03:41",402243.000,"cc",28337.285,1,0.100,317118.000,0.200,73418.000,0.300,7430.000,0.500,3069.000,1.000,1207.000,5.000,1.000
"03/01/08","08:03:47",404592.000,"cc",28317.816,1,0.100,319371.000,0.200,73012.000,0.300,7585.000,0.500,3462.000,1.000,1162.000,5.000,0
"03/01/08","08:03:53",328491.000,"cc",28325.631,1,0.100,266813.000,0.200,51874.000,0.300,5726.000,0.500,2958.000,1.000,1120.000,5.000,0
"03/01/08","08:03:59",289197.000,"cc",28315.244,1,0.100,238547.000,0.200,42471.000,0.300,4778.000,0.500,2562.000,1.000,839.000,5.000,0
"03/01/08","08:04:05",291743.000,"cc",28278.043,1,0.100,241968.000,0.200,42252.000,0.300,4345.000,0.500,2344.000,1.000,834.000,5.000,0
"03/01/08","08:04:11",236006.000,"cc",28370.553,1,0.100,196608.000,0.200,31271.000,0.300,4236.000,0.500,2818.000,1.000,1073.000,5.000,0
"03/01/08","08:04:17",129477.000,"cc",28320.283,1,0.100,107718.000,0.200,15761.000,0.300,2936.000,0.500,2214.000,1.000,848.000,5.000,0
"03/01/08","08:04:23",127760.000,"cc",28309.815,1,0.100,105015.000,0.200,15168.000,0.300,3624.000,0.500,2843.000,1.000,1110.000,5.000,0
"03/01/08","08:04:29",162150.000,"cc",28272.332,1,0.100,133214.000,0.200,20678.000,0.300,4169.000,0.500,2984.000,1.000,1105.000,5.000,0
"03/01/08","08:04:35",154642.000,"cc",28289.205,1,0.100,122418.000,0.200,20879.000,0.300,5596.000,0.500,4203.000,1.000,1546.000,5.000,0
"03/01/08","08:04:41",141302.000,"cc",28310.648,1,0.100,114969.000,0.200,18366.000,0.300,4056.000,0.500,2816.000,1.000,1095.000,5.000,0
"03/01/08","08:04:47",206546.000,"cc",28293.594,1,0.100,166482.000,0.200,30669.000,0.300,5043.000,0.500,3216.000,1.000,1136.000,5.000,0
"03/01/08","08:04:53",396836.000,"cc",28361.357,1,0.100,310506.000,0.200,73258.000,0.300,8056.000,0.500,3763.000,1.000,1252.000,5.000,1.000
"03/01/08","08:04:59",395060.000,"cc",28334.606,1,0.100,310379.000,0.200,71803.000,0.300,7780.000,0.500,3748.000,1.000,1349.000,5.000,1.000
"03/01/08","08:05:05",328409.000,"cc",28326.445,1,0.100,266385.000,0.200,52594.000,0.300,5643.000,0.500,2846.000,1.000,941.000,5.000,0
"03/01/08","08:05:11",346209.000,"cc",28282.779,1,0.100,276830.000,0.200,56320.000,0.300,7403.000,0.500,4183.000,1.000,1473.000,5.000,0
"03/01/08","08:05:17",314375.000,"cc",28318.572,1,0.100,250746.000,0.200,49648.000,0.300,7669.000,0.500,4669.000,1.000,1643.000,5.000,0
"03/01/08","08:05:23",291728.000,"cc",28366.783,1,0.100,237032.000,0.200,44032.000,0.300,5966.000,0.500,3389.000,1.000,1309.000,5.000,0
"03/01/08","08:05:29",286965.000,"cc",28304.342,1,0.100,232382.000,0.200,43456.000,0.300,6184.000,0.500,3572.000,1.000,1370.000,5.000,1.000
"03/01/08","08:05:35",294153.000,"cc",28324.541,1,0.100,238960.000,0.200,45106.000,0.300,5739.000,0.500,3206.000,1.000,1142.000,5.000,0
"03/01/08","08:05:41",256491.000,"cc",28280.613,1,0.100,209524.000,0.200,37315.000,0.300,5312.000,0.500,3204.000,1.000,1135.000,5.000,1.000
"03/01/08","08:05:47",208823.000,"cc",28340.807,1,0.100,165754.000,0.200,29779.000,0.300,6708.000,0.500,4726.000,1.000,1856.000,5.000,0
"03/01/08","08:05:53",248406.000,"cc",28285.854,1,0.100,196481.000,0.200,37495.000,0.300,7374.000,0.500,5115.000,1.000,1941.000,5.000,0
"03/01/08","08:05:59",347670.000,"cc",28321.680,1,0.100,275214.000,0.200,59327.000,0.300,7568.000,0.500,4099.000,1.000,1462.000,5.000,0
"03/01/08","08:06:05",341479.000,"cc",28298.666,1,0.100,252574.000,0.200,76833.000,0.300,7752.000,0.500,3134.000,1.000,1186.000,5.000,0
"03/01/08","08:06:11",302274.000,"cc",28286.709,1,0.100,244804.000,0.200,47319.000,0.300,5788.000,0.500,3226.000,1.000,1137.000,5.000,0
"03/01/08","08:06:17",208296.000,"cc",28343.979,1,0.100,167963.000,0.200,29657.000,0.300,5607.000,0.500,3741.000,1.000,1328.000,5.000,0
"03/01/08","08:06:23",174097.000,"cc",28301.377,1,0.100,142174.000,0.200,23586.000,0.300,4387.000,0.500,2939.000,1.000,1011.000,5.000,0
"03/01/08","08:06:29",132726.000,"cc",28305.184,1,0.100,109106.000,0.200,17519.000,0.300,3137.000,0.500,2169.000,1.000,795.000,5.000,0
"03/01/08","08:06:35",148046.000,"cc",28338.482,1,0.100,116190.000,0.200,20550.000,0.300,5708.000,0.500,4083.000,1.000,1515.000,5.000,0
"03/01/08","08:06:41",131851.000,"cc",28364.326,1,0.100,105280.000,0.200,17806.000,0.300,4444.000,0.500,3187.000,1.000,1134.000,5.000,0
"03/01/08","08:06:47",140554.000,"cc",28271.508,1,0.100,111652.000,0.200,19281.000,0.300,4926.000,0.500,3405.000,1.000,1290.000,5.000,0
"03/01/08","08:06:53",259873.000,"cc",28293.252,1,0.100,202091.000,0.200,43634.000,0.300,7831.000,0.500,4722.000,1.000,1595.000,5.000,0
"03/01/08","08:06:59",235908.000,"cc",28335.182,1,0.100,184257.000,0.200,36715.000,0.300,8113.000,0.500,5115.000,1.000,1708.000,5.000,0
"03/01/08","08:07:05",274903.000,"cc",28296.982,1,0.100,216558.000,0.200,43952.000,0.300,8121.000,0.500,4647.000,1.000,1625.000,5.000,0
"03/01/08","08:07:11",246369.000,"cc",28303.852,1,0.100,197146.000,0.200,37606.000,0.300,6485.000,0.500,3822.000,1.000,1310.000,5.000,0
"03/01/08","08:07:17",238511.000,"cc",28281.055,1,0.100,193452.000,0.200,35522.000,0.300,5448.000,0.500,3031.000,1.000,1058.000,5.000,0
"03/01/08","08:07:23",194836.000,"cc",28369.936,1,0.100,159357.000,0.200,27556.000,0.300,4410.000,0.500,2555.000,1.000,958.000,5.000,0
"03/01/08","08:07:29",253625.000,"cc",28328.699,1,0.100,204240.000,0.200,38650.000,0.300,6034.000,0.500,3514.000,1.000,1187.000,5.000,0
"03/01/08","08:07:35",299349.000,"cc",28325.699,1,0.100,238703.000,0.200,49571.000,0.300,6536.000,0.500,3427.000,1.000,1112.000,5.000,0
"03/01/08","08:07:41",315560.000,"cc",28328.285,1,0.100,231943.000,0.200,70393.000,0.300,8229.000,0.500,3680.000,1.000,1315.000,5.000,0
"03/01/08","08:07:47",351159.000,"cc",28351.963,1,0.100,278412.000,0.200,60036.000,0.300,7443.000,0.500,3838.000,1.000,1430.000,5.000,0
"03/01/08","08:07:53",245601.000,"cc",28289.615,1,0.100,201636.000,0.200,36176.000,0.300,4618.000,0.500,2361.000,1.000,810.000,5.000,0
"03/01/08","08:07:59",265336.000,"cc",28292.441,1,0.100,217914.000,0.200,40147.000,0.300,4492.000,0.500,2083.000,1.000,700.000,5.000,0
"03/01/08","08:08:05",251296.000,"cc",28316.328,1,0.100,206899.000,0.200,36915.000,0.300,4432.000,0.500,2255.000,1.000,795.000,5.000,0
"03/01/08","08:08:11",194477.000,"cc",28328.348,1,0.100,161955.000,0.200,26791.000,0.300,3365.000,0.500,1779.000,1.000,587.000,5.000,0
"03/01/08","08:08:17",200044.000,"cc",28312.916,1,0.100,167018.000,0.200,27194.000,0.300,3439.000,0.500,1816.000,1.000,577.000,5.000,0
"03/01/08","08:08:23",198802.000,"cc",28278.686,1,0.100,165357.000,0.200,27326.000,0.300,3602.000,0.500,1870.000,1.000,647.000,5.000,0
"03/01/08","08:08:29",299941.000,"cc",28329.986,1,0.100,240392.000,0.200,49555.000,0.300,6042.000,0.500,2954.000,1.000,998.000,5.000,0
"03/01/08","08:08:35",286094.000,"cc",28328.438,1,0.100,226369.000,0.200,45988.000,0.300,7825.000,0.500,4412.000,1.000,1500.000,5.000,0
"03/01/08","08:08:41",229802.000,"cc",28294.736,1,0.100,186068.000,0.200,33853.000,0.300,5718.000,0.500,3160.000,1.000,1003.000,5.000,0
"03/01/08","08:08:47",193200.000,"cc",28330.404,1,0.100,158006.000,0.200,27549.000,0.300,4349.000,0.500,2484.000,1.000,812.000,5.000,0
"03/01/08","08:08:53",241776.000,"cc",28382.078,1,0.100,195915.000,0.200,35944.000,0.300,5568.000,0.500,3238.000,1.000,1111.000,5.000,0
"03/01/08","08:08:59",233459.000,"cc",28276.199,1,0.100,189428.000,0.200,34194.000,0.300,5458.000,0.500,3318.000,1.000,1061.000,5.000,0
"03/01/08","08:09:05",264819.000,"cc",28349.018,1,0.100,210764.000,0.200,40946.000,0.300,7092.000,0.500,4385.000,1.000,1631.000,5.000,1.000
"03/01/08","08:09:11",305320.000,"cc",28325.906,1,0.100,237367.000,0.200,50344.000,0.300,9662.000,0.500,5807.000,1.000,2140.000,5.000,0
"03/01/08","08:09:17",293557.000,"cc",28320.033,1,0.100,229666.000,0.200,47399.000,0.300,8983.000,0.500,5552.000,1.000,1957.000,5.000,0
"03/01/08","08:09:23",268333.000,"cc",28314.731,1,0.100,211739.000,0.200,42354.000,0.300,7800.000,0.500,4784.000,1.000,1656.000,5.000,0
"03/01/08","08:09:29",235047.000,"cc",28324.775,1,0.100,186438.000,0.200,35869.000,0.300,6734.000,0.500,4482.000,1.000,1524.000,5.000,0
"03/01/08","08:09:35",207501.000,"cc",28268.467,1,0.100,166466.000,0.200,29926.000,0.300,5791.000,0.500,3960.000,1.000,1358.000,5.000,0
"03/01/08","08:09:41",246591.000,"cc",28261.947,1,0.100,199273.000,0.200,36275.000,0.300,6097.000,0.500,3670.000,1.000,1276.000,5.000,0
"03/01/08","08:09:47",303207.000,"cc",28322.266,1,0.100,242906.000,0.200,47810.000,0.300,7065.000,0.500,3999.000,1.000,1427.000,5.000,0
"03/01/08","08:09:53",313218.000,"cc",28314.568,1,0.100,250154.000,0.200,50133.000,0.300,7270.000,0.500,4186.000,1.000,1475.000,5.000,0
"03/01/08","08:09:59",259136.000,"cc",28343.354,1,0.100,208540.000,0.200,38810.000,0.300,6355.000,0.500,3935.000,1.000,1496.000,5.000,0
"03/01/08","08:10:05",240813.000,"cc",28328.309,1,0.100,195219.000,0.200,36083.000,0.300,5242.000,0.500,3171.000,1.000,1098.000,5.000,0
"03/01/08","08:10:11",253371.000,"cc",28327.225,1,0.100,205141.000,0.200,37742.000,0.300,5777.000,0.500,3428.000,1.000,1283.000,5.000,0
"03/01/08","08:10:17",285336.000,"cc",28287.254,1,0.100,228562.000,0.200,44301.000,0.300,6761.000,0.500,4230.000,1.000,1482.000,5.000,0
"03/01/08","08:10:23",224948.000,"cc",28317.174,1,0.100,181297.000,0.200,32864.000,0.300,5670.000,0.500,3718.000,1.000,1399.000,5.000,0
"03/01/08","08:10:29",206928.000,"cc",28364.795,1,0.100,167388.000,0.200,29793.000,0.300,5237.000,0.500,3366.000,1.000,1144.000,5.000,0
"03/01/08","08:10:35",179241.000,"cc",28284.078,1,0.100,145334.000,0.200,24844.000,0.300,4746.000,0.500,3124.000,1.000,1193.000,5.000,0
"03/01/08","08:10:41",149772.000,"cc",28288.461,1,0.100,121668.000,0.200,20270.000,0.300,4024.000,0.500,2797.000,1.000,1013.000,5.000,0
"03/01/08","08:10:47",158283.000,"cc",28330.494,1,0.100,126623.000,0.200,21872.000,0.300,5013.000,0.500,3544.000,1.000,1231.000,5.000,0
"03/01/08","08:10:53",190828.000,"cc",28335.279,1,0.100,151051.000,0.200,27582.000,0.300,6162.000,0.500,4439.000,1.000,1594.000,5.000,0
"03/01/08","08:10:59",314432.000,"cc",28350.955,1,0.100,225458.000,0.200,74726.000,0.300,9129.000,0.500,3756.000,1.000,1363.000,5.000,0
"03/01/08","08:11:05",380443.000,"cc",28290.943,1,0.100,243083.000,0.200,116611.000,0.300,15581.000,0.500,3796.000,1.000,1372.000,5.000,0
"03/01/08","08:11:11",387355.000,"cc",28320.895,1,0.100,194335.000,0.200,157502.000,0.300,30596.000,0.500,3772.000,1.000,1150.000,5.000,0
"03/01/08","08:11:17",382418.000,"cc",28311.469,1,0.100,191473.000,0.200,156220.000,0.300,29861.000,0.500,3735.000,1.000,1129.000,5.000,0
"03/01/08","08:11:23",439016.000,"cc",28267.881,1,0.100,253810.000,0.200,156787.000,0.300,23400.000,0.500,3808.000,1.000,1211.000,5.000,0
"03/01/08","08:11:29",492562.000,"cc",28313.279,1,0.100,338028.000,0.200,132764.000,0.300,15737.000,0.500,4487.000,1.000,1546.000,5.000,0
"03/01/08","08:11:35",408311.000,"cc",28356.197,1,0.100,283755.000,0.200,107884.000,0.300,11689.000,0.500,3752.000,1.000,1231.000,5.000,0
"03/01/08","08:11:41",374820.000,"cc",28349.012,1,0.100,271167.000,0.200,89798.000,0.300,9421.000,0.500,3313.000,1.000,1121.000,5.000,0
"03/01/08","08:11:47",386167.000,"cc",28317.920,1,0.100,306037.000,0.200,68362.000,0.300,7288.000,0.500,3233.000,1.000,1247.000,5.000,0
"03/01/08","08:11:53",346273.000,"cc",28229.639,1,0.100,281206.000,0.200,55768.000,0.300,5758.000,0.500,2587.000,1.000,954.000,5.000,0
"03/01/08","08:11:59",377932.000,"cc",28400.633,1,0.100,303508.000,0.200,64512.000,0.300,6345.000,0.500,2603.000,1.000,964.000,5.000,0
"03/01/08","08:12:05",339003.000,"cc",28256.426,1,0.100,272077.000,0.200,55760.000,0.300,6745.000,0.500,3285.000,1.000,1136.000,5.000,0
"03/01/08","08:12:11",307752.000,"cc",28248.270,1,0.100,248058.000,0.200,48798.000,0.300,6411.000,0.500,3406.000,1.000,1079.000,5.000,0
"03/01/08","08:12:17",289063.000,"cc",28304.354,1,0.100,230132.000,0.200,45389.000,0.300,7726.000,0.500,4355.000,1.000,1461.000,5.000,0
"03/01/08","08:12:23",273813.000,"cc",28337.461,1,0.100,217689.000,0.200,42275.000,0.300,7539.000,0.500,4692.000,1.000,1618.000,5.000,0
"03/01/08","08:12:29",318809.000,"cc",28283.385,1,0.100,252751.000,0.200,51271.000,0.300,8293.000,0.500,4819.000,1.000,1675.000,5.000,0
"03/01/08","08:12:35",260168.000,"cc",28341.059,1,0.100,211949.000,0.200,38146.000,0.300,5556.000,0.500,3357.000,1.000,1160.000,5.000,0
"03/01/08","08:12:41",119478.000,"cc",28334.418,1,0.100,100112.000,0.200,14930.000,0.300,2398.000,0.500,1532.000,1.000,506.000,5.000,0
"03/01/08","08:12:47",180354.000,"cc",28361.051,1,0.100,147263.000,0.200,24659.000,0.300,4432.000,0.500,2966.000,1.000,1034.000,5.000,0
"03/01/08","08:12:53",185943.000,"cc",28320.281,1,0.100,147694.000,0.200,26147.000,0.300,6048.000,0.500,4432.000,1.000,1622.000,5.000,0
"03/01/08","08:12:59",176662.000,"cc",28317.176,1,0.100,143298.000,0.200,24255.000,0.300,4743.000,0.500,3241.000,1.000,1125.000,5.000,0
"03/01/08","08:13:05",215962.000,"cc",28343.082,1,0.100,172607.000,0.200,31258.000,0.300,6214.000,0.500,4269.000,1.000,1614.000,5.000,0
"03/01/08","08:13:11",229013.000,"cc",28281.357,1,0.100,185313.000,0.200,33329.000,0.300,5472.000,0.500,3543.000,1.000,1356.000,5.000,0
"03/01/08","08:13:17",265080.000,"cc",28314.256,1,0.100,216514.000,0.200,39041.000,0.300,5356.000,0.500,3068.000,1.000,1101.000,5.000,0
"03/01/08","08:13:23",359767.000,"cc",28298.356,1,0.100,285374.000,0.200,60378.000,0.300,8043.000,0.500,4387.000,1.000,1585.000,5.000,0
"03/01/08","08:13:29",368830.000,"cc",28340.865,1,0.100,291604.000,0.200,62049.000,0.300,8632.000,0.500,4831.000,1.000,1714.000,5.000,0
"03/01/08","08:13:35",389399.000,"cc",28291.695,1,0.100,304373.000,0.200,69172.000,0.300,9315.000,0.500,4795.000,1.000,1744.000,5.000,0
"03/01/08","08:13:41",335275.000,"cc",28256.449,1,0.100,259197.000,0.200,58032.000,0.300,9998.000,0.500,5894.000,1.000,2153.000,5.000,1.000
"03/01/08","08:13:47",332751.000,"cc",28336.859,1,0.100,265263.000,0.200,53584.000,0.300,7853.000,0.500,4462.000,1.000,1589.000,5.000,0
"03/01/08","08:13:53",281128.000,"cc",28379.252,1,0.100,228233.000,0.200,42491.000,0.300,5827.000,0.500,3343.000,1.000,1234.000,5.000,0
"03/01/08","08:13:59",270408.000,"cc",28304.106,1,0.100,217889.000,0.200,40858.000,0.300,6435.000,0.500,3838.000,1.000,1388.000,5.000,0
"03/01/08","08:14:05",293183.000,"cc",28290.596,1,0.100,235564.000,0.200,45052.000,0.300,6844.000,0.500,4166.000,1.000,1557.000,5.000,0
"03/01/08","08:14:11",254016.000,"cc",28341.840,1,0.100,206116.000,0.200,37065.000,0.300,5664.000,0.500,3757.000,1.000,1414.000,5.000,0
"03/01/08","08:14:17",253896.000,"cc",28366.650,1,0.100,206044.000,0.200,36872.000,0.300,5796.000,0.500,3733.000,1.000,1451.000,5.000,0
"03/01/08","08:14:23",192022.000,"cc",28260.502,1,0.100,150776.000,0.200,27276.000,0.300,6858.000,0.500,5168.000,1.000,1944.000,5.000,0
"03/01/08","08:14:29",150173.000,"cc",28347.068,1,0.100,121731.000,0.200,19979.000,0.300,4311.000,0.500,3058.000,1.000,1094.000,5.000,0
"03/01/08","08:14:35",159403.000,"cc",28266.807,1,0.100,129960.000,0.200,21158.000,0.300,4210.000,0.500,2973.000,1.000,1102.000,5.000,0
"03/01/08","08:14:41",195187.000,"cc",28295.107,1,0.100,159210.000,0.200,26730.000,0.300,4675.000,0.500,3320.000,1.000,1252.000,5.000,0
"03/01/08","08:14:47",247584.000,"cc",28355.732,1,0.100,200635.000,0.200,35893.000,0.300,5896.000,0.500,3800.000,1.000,1359.000,5.000,1.000
"03/01/08","08:14:53",208604.000,"cc",28318.578,1,0.100,163529.000,0.200,29975.000,0.300,7571.000,0.500,5482.000,1.000,2047.000,5.000,0
"03/01/08","08:14:59",187233.000,"cc",28343.512,1,0.100,145858.000,0.200,27034.000,0.300,7029.000,0.500,5322.000,1.000,1990.000,5.000,0
"03/01/08","08:15:05",143239.000,"cc",28381.070,1,0.100,111002.000,0.200,19602.000,0.300,6104.000,0.500,4717.000,1.000,1814.000,5.000,0
"03/01/08","08:15:11",110885.000,"cc",28306.078,1,0.100,86773.000,0.200,14592.000,0.300,4606.000,0.500,3600.000,1.000,1314.000,5.000,0
"03/01/08","08:15:17",176648.000,"cc",28265.211,1,0.100,135831.000,0.200,25898.000,0.300,7273.000,0.500,5583.000,1.000,2063.000,5.000,0
"03/01/08","08:15:23",182371.000,"cc",28277.227,1,0.100,143618.000,0.200,26081.000,0.300,6357.000,0.500,4639.000,1.000,1676.000,5.000,0
"03/01/08","08:15:29",165711.000,"cc",28264.285,1,0.100,130406.000,0.200,22962.000,0.300,6008.000,0.500,4627.000,1.000,1708.000,5.000,0
"03/01/08","08:15:35",137225.000,"cc",28317.783,1,0.100,110692.000,0.200,18043.000,0.300,4114.000,0.500,3248.000,1.000,1128.000,5.000,0
"03/01/08","08:15:41",143391.000,"cc",28362.996,1,0.100,112905.000,0.200,19369.000,0.300,5321.000,0.500,4178.000,1.000,1618.000,5.000,0
"03/01/08","08:15:47",158387.000,"cc",28322.779,1,0.100,125778.000,0.200,21169.000,0.300,5634.000,0.500,4185.000,1.000,1621.000,5.000,0
"03/01/08","08:15:53",142715.000,"cc",28273.875,1,0.100,112021.000,0.200,19281.000,0.300,5511.000,0.500,4236.000,1.000,1666.000,5.000,0
"03/01/08","08:15:59",117670.000,"cc",28360.254,1,0.100,91284.000,0.200,15638.000,0.300,5016.000,0.500,4104.000,1.000,1628.000,5.000,0
"03/01/08","08:16:05",137470.000,"cc",28386.234,1,0.100,107806.000,0.200,18531.000,0.300,5352.000,0.500,4200.000,1.000,1581.000,5.000,0
"03/01/08","08:16:11",175648.000,"cc",28299.920,1,0.100,141121.000,0.200,24029.000,0.300,5296.000,0.500,3813.000,1.000,1389.000,5.000,0
"03/01/08","08:16:17",312664.000,"cc",28290.272,1,0.100,255410.000,0.200,47386.000,0.300,5608.000,0.500,3145.000,1.000,1115.000,5.000,0
"03/01/08","08:16:23",246760.000,"cc",28320.902,1,0.100,200973.000,0.200,36498.000,0.300,5075.000,0.500,3065.000,1.000,1149.000,5.000,0
"03/01/08","08:16:29",138107.000,"cc",28338.809,1,0.100,115285.000,0.200,17269.000,0.300,2913.000,0.500,1962.000,1.000,678.000,5.000,0